[[{"header":{"parameterUnit":"m.s-1","parameterCategory":1,"la1":30.2991,"la2":30.254,"lo1":-89.0895,"lo2":-89.0444,"dy":0.0017,"dx":0.0017,"nx":28,"ny":28,"refTime":"2024-03-16T09:00:00:Z","depth":0,"parameterNumber":2,"parameterNumberName":"U-component_of_WINDS"},"data":[0,0,0,0,0,0,0,0,0,0,0,0,0,0,0,0,0,0,0,0,0,0,0,0,0,0,0,0,0,0,0,0,0,0,0,0,0,0,0,0,0,0,0,0,0,0,0,0,0,0,0,0,0,0,0,0,0,0,-3.0387,-3.039,0,-3.0706,-3.0709,-3.0713,-3.074,-3.0737,-3.0733,-3.073,-3.1058,-3.1069,-3.1081,0,0,0,0,0,0,0,0,0,0,0,0,0,-2.9798,-2.9809,-3.0386,-3.039,-3.0394,-3.0705,-3.0709,-3.0714,-3.0741,-3.0736,-3.0732,-3.0728,-3.1054,-3.1068,-3.1082,0,0,0,0,0,0,0,0,0,0,0,0,0,-3.0079,-2.9812,-3.0386,-3.0445,-3.0454,-3.0704,-3.071,-3.0715,-3.0741,-3.0736,-3.0731,-3.0726,-3.1049,-3.1066,-3.1084,-3.1297,0,0,-3.1139,-3.1147,0,0,0,0,0,0,0,0,-3.0063,-3.0101,-3.0433,-3.0442,-3.0452,-3.0678,-3.0622,-3.091,-3.0743,-3.0632,-3.073,-3.0724,-3.0936,-3.0962,-3.1034,-3.1313,-3.1327,-3.114,-3.1151,-3.1159,-3.1164,0,0,0,0,0,0,0,-3.0044,-3.0087,-3.0513,-3.0437,-3.0449,-3.0455,-3.0489,-3.0677,-3.0809,-3.0642,-3.0644,-3.0682,-3.094,-3.1016,-3.1041,-3.1332,-3.114,-3.1156,-3.1167,-3.1174,-3.1797,-3.1803,0,0,0,0,0,0,-3.0013,-3.0071,-3.0503,-3.0522,-3.0241,-3.047,-3.0508,-3.061,-3.0807,-3.0832,-3.0686,-3.0682,-3.0988,-3.1021,-3.1053,-3.1314,-3.1159,-3.1176,-3.1186,-3.1792,-3.1799,-3.1805,0,0,0,0,0,0,-3.0,-3.0051,-3.049,-3.0297,-3.0354,-3.0486,-3.06,-3.0619,-3.0696,-3.084,-3.0864,-3.074,-3.0985,-3.1028,-3.1235,-3.1326,-3.1184,-3.12,-3.1785,-3.1794,-3.1802,-3.1838,0,0,0,0,0,0,-2.9983,-3.0047,-3.013,-3.0299,-3.0364,-3.0668,-3.0606,-3.0629,-3.0727,-3.0724,-3.0897,-3.0921,-3.0985,-3.1209,-3.1253,-3.1348,-3.1214,-3.1777,-3.1789,-3.1799,-3.1829,-3.1847,-3.1862,0,0,0,0,0,-2.9962,-3.0129,-3.0134,-3.0186,-3.0471,-3.0673,-3.071,-3.078,-3.0734,-3.0818,-3.091,-3.0916,-3.1308,-3.123,-3.128,-3.1381,-3.1772,-3.1786,-3.1798,-3.1822,-3.1843,-3.1861,0,0,0,0,0,0,-2.9969,-3.0152,-3.016,-3.0386,-3.0514,-3.0677,-3.0786,-3.0801,-3.0944,-3.0936,-3.1016,-3.1055,-3.1259,-3.1341,-3.125,-3.1596,-3.1535,-3.1559,-3.1536,-3.1557,-3.1573,-3.155,-3.1229,0,0,0,0,0,-2.9996,-3.0145,-3.0297,-3.0482,-3.0545,-3.0654,-3.0745,-3.0787,-3.0922,-3.0977,-3.1084,-3.1215,-3.1367,-3.1467,-3.1615,-3.184,-3.1877,-3.1934,-3.195,-3.1963,-3.1983,-3.2105,-3.2132,-3.1848,-3.1848,-3.1848,0,0,-3.0055,-3.0173,-3.0263,-3.0486,-3.059,-3.0741,-3.07,-3.0863,-3.0976,-3.1002,-3.1204,-3.1286,-3.1437,-3.1654,-3.1754,-3.1728,-3.2069,-3.1979,-3.1988,-3.2002,-3.2121,-3.2148,-3.2172,-3.1857,-3.1855,-3.1854,0,0,-3.024,-3.0345,-3.0509,-3.0612,-3.0769,-3.084,-3.0878,-3.1039,-3.1095,-3.1298,-3.132,-3.1454,-3.1716,-3.1822,-3.191,-3.2129,-3.2139,-3.2175,-3.226,-3.2378,-3.2401,-3.2421,-3.2498,-3.2524,-3.2194,-3.2194,-3.2194,0,-3.0294,-3.0523,-3.0592,-3.0754,-3.085,-3.0877,-3.1043,-3.114,-3.1338,-3.1403,-3.137,-3.1696,-3.18,-3.204,-3.2093,-3.2163,-3.2209,-3.2157,-3.2392,-3.2413,-3.2433,-3.2507,-3.2536,-3.2197,-3.2197,-3.2197,-3.2196,0,-3.0581,-3.0739,-3.0853,-3.1041,-3.1149,-3.1313,-3.1404,-3.1506,-3.1536,-3.161,-3.1814,-3.1939,-3.2112,-3.2171,-3.2205,-3.2415,-3.2394,-3.2375,-3.2316,-3.2462,-3.2533,-3.2562,-3.2202,-3.2201,-3.22,-3.2199,0,0,-3.0783,-3.1003,-3.1043,-3.1127,-3.1299,-3.1423,-3.1585,-3.1753,-3.1838,-3.1971,-3.2109,-3.2326,-3.2309,-3.2409,-3.2453,-3.2556,-3.2719,-3.2525,-3.253,-3.2556,-3.2957,-3.297,-3.3002,-3.2725,-3.2731,-3.2735,-3.2943,0,-3.0987,-3.1278,-3.1341,-3.1591,-3.1737,-3.1763,-3.1904,-3.2023,-3.2095,-3.2228,-3.2307,-3.246,-3.2426,-3.2486,-3.2589,-3.2677,-3.28,-3.2663,-3.2853,-3.2859,-3.2816,-3.3039,-3.3055,-3.3246,-3.2972,-3.2977,-3.298,0,-3.1265,-3.1403,-3.1667,-3.1816,-3.188,-3.2006,-3.2162,-3.2289,-3.2424,-3.2469,-3.2577,-3.2609,-3.2777,-3.2707,-3.2938,-3.2843,-3.2924,-3.2978,-3.2987,-3.3009,-3.2929,-3.3067,-3.3309,-3.3337,-3.3025,-3.3021,-3.3018,0,-3.1385,-3.1636,-3.1826,-3.1897,-3.2077,-3.2164,-3.2242,-3.2372,-3.2467,-3.2603,-3.2666,-3.282,-3.2904,-3.3022,-3.3094,-3.3036,-3.3318,-3.3255,-3.3359,-3.3358,-3.342,-3.3415,-3.3678,-3.347,-3.347,-3.3469,-3.3469,0,-3.1607,-3.1767,-3.1882,-3.1999,-3.2178,-3.2248,-3.2423,-3.2501,-3.2615,-3.2747,-3.2778,-3.29,-3.2987,-3.3121,-3.3177,-3.3359,-3.3397,-3.3437,-3.345,-3.3435,-3.343,-3.349,-3.3479,-3.3477,-3.3475,-3.3474,-3.3473,0,-3.1773,-3.1856,-3.2064,-3.2215,-3.2256,-3.2382,-3.251,-3.2623,-3.2693,-3.2858,-3.2901,-3.3011,-3.317,-3.3252,-3.3451,-3.3488,-3.3692,-3.3698,-3.3647,-3.3652,-3.3751,-3.3741,-3.4063,-3.4108,-3.387,-3.3872,-3.3874,0,-3.1909,-3.2033,-3.2196,-3.2285,-3.2365,-3.2509,-3.2606,-3.2678,-3.2776,-3.2937,-3.303,-3.319,-3.3322,-3.3573,-3.367,-3.3821,-3.3831,-3.3933,-3.3854,-3.3833,-3.3832,-3.3823,-3.3835,-3.3947,-3.395,-3.3952,-3.3953,0,-3.2143,-3.2176,-3.2314,-3.2466,-3.2579,-3.2702,-3.2824,-3.2895,-3.2986,-3.3095,-3.3257,-3.3359,-3.3559,-3.3717,-3.3874,-3.3953,-3.3969,-3.3976,-3.4008,-3.3995,-3.396,-3.3979,-3.3685,-3.397,-3.3968,-3.3967,-3.3966,-3.3965,-3.2298,-3.2408,-3.2538,-3.269,-3.2788,-3.2899,-3.3012,-3.3094,-3.323,-3.3399,-3.3432,-3.3603,-3.373,-3.3943,-3.4026,-3.416,-3.4139,-3.4185,-3.4197,-3.4208,-3.4212,-3.3937,-3.4189,-3.4188,-3.4188,-3.4188,-3.4187,0,-3.2532,-3.2616,-3.2755,-3.2922,-3.304,-3.3042,-3.3174,-3.3273,-3.3423,-3.354,-3.3668,-3.3852,-3.4003,-3.411,-3.4264,-3.435,-3.436,-3.4388,-3.4383,-3.4401,-3.4223,-3.4179,-3.4377,-3.4377,-3.4377,-3.4377,-3.4377,-3.4377,-3.2668,-3.2853,-3.2902,-3.3134,-3.3217,-3.3384,-3.3459,-3.3561,-3.3655,-3.3859,-3.3984,-3.4052,-3.4165,-3.4326,-3.4464,-3.4491,-3.4547,-3.4574,-3.4601,-3.4433,-3.4414,-3.4394,-3.4354,-3.4585,-3.4585,-3.4768,-3.477,-3.4771]},{"header":{"parameterUnit":"m.s-1","parameterCategory":1,"la1":30.2991,"la2":30.254,"lo1":-89.0895,"lo2":-89.0444,"dy":0.0017,"dx":0.0017,"nx":28,"ny":28,"refTime":"2024-03-16T09:00:00:Z","depth":0,"parameterNumber":3,"parameterNumberName":"V-component_of_WINDS"},"data":[0,0,0,0,0,0,0,0,0,0,0,0,0,0,0,0,0,0,0,0,0,0,0,0,0,0,0,0,0,0,0,0,0,0,0,0,0,0,0,0,0,0,0,0,0,0,0,0,0,0,0,0,0,0,0,0,0,0,-1.4836,-1.4836,0,-1.4889,-1.489,-1.4891,-1.4871,-1.487,-1.4869,-1.4867,-1.4926,-1.4928,-1.4931,0,0,0,0,0,0,0,0,0,0,0,0,0,-1.4719,-1.4721,-1.4836,-1.4836,-1.4837,-1.4889,-1.489,-1.4891,-1.4871,-1.487,-1.4868,-1.4867,-1.4925,-1.4928,-1.4931,0,0,0,0,0,0,0,0,0,0,0,0,0,-1.4771,-1.4722,-1.4836,-1.4834,-1.4834,-1.4889,-1.489,-1.4891,-1.4872,-1.487,-1.4868,-1.4866,-1.4924,-1.4928,-1.4932,-1.4993,0,0,-1.4944,-1.4946,0,0,0,0,0,0,0,0,-1.4768,-1.4775,-1.4833,-1.4834,-1.4834,-1.4872,-1.487,-1.4925,-1.4872,-1.4857,-1.4867,-1.4865,-1.4909,-1.4914,-1.4929,-1.4996,-1.4998,-1.4944,-1.4947,-1.4948,-1.495,0,0,0,0,0,0,0,-1.4764,-1.4773,-1.4857,-1.4834,-1.4835,-1.4831,-1.4836,-1.488,-1.4893,-1.4858,-1.4857,-1.4864,-1.4909,-1.4925,-1.493,-1.4999,-1.4944,-1.4948,-1.495,-1.4952,-1.512,-1.5122,0,0,0,0,0,0,-1.476,-1.477,-1.4855,-1.4859,-1.4796,-1.4834,-1.484,-1.4862,-1.4892,-1.4895,-1.4865,-1.4862,-1.4919,-1.4925,-1.4932,-1.5007,-1.4948,-1.4952,-1.4954,-1.5118,-1.5121,-1.5123,0,0,0,0,0,0,-1.4757,-1.4768,-1.4853,-1.4814,-1.4824,-1.4838,-1.4862,-1.4864,-1.4879,-1.4897,-1.49,-1.4879,-1.4918,-1.4926,-1.4978,-1.5009,-1.4954,-1.4958,-1.5116,-1.5119,-1.5122,-1.5158,0,0,0,0,0,0,-1.4754,-1.4767,-1.479,-1.4814,-1.4827,-1.4898,-1.4864,-1.4866,-1.4886,-1.4883,-1.4911,-1.4914,-1.4917,-1.4972,-1.4982,-1.5013,-1.4961,-1.5113,-1.5117,-1.5121,-1.5154,-1.5162,-1.5168,0,0,0,0,0,-1.475,-1.4799,-1.4791,-1.4802,-1.4856,-1.49,-1.4907,-1.4909,-1.4888,-1.4912,-1.4924,-1.4913,-1.5003,-1.4977,-1.4988,-1.5022,-1.5111,-1.5116,-1.512,-1.5151,-1.516,-1.5168,0,0,0,0,0,0,-1.4779,-1.4802,-1.4794,-1.4852,-1.4874,-1.4896,-1.4927,-1.4918,-1.4948,-1.4944,-1.4945,-1.4952,-1.5006,-1.5018,-1.4989,-1.5083,-1.5054,-1.5061,-1.5073,-1.5082,-1.5089,-1.5087,-1.4964,0,0,0,0,0,-1.4792,-1.4825,-1.4843,-1.4893,-1.4904,-1.4913,-1.4933,-1.4932,-1.4955,-1.4965,-1.498,-1.5004,-1.5038,-1.506,-1.5092,-1.5154,-1.5161,-1.5182,-1.5189,-1.5195,-1.5202,-1.5237,-1.5248,-1.5138,-1.5138,-1.5138,0,0,-1.482,-1.4836,-1.4857,-1.4899,-1.4916,-1.4951,-1.4921,-1.496,-1.4987,-1.4971,-1.5021,-1.5033,-1.506,-1.5117,-1.5143,-1.5129,-1.5234,-1.5201,-1.5206,-1.521,-1.5243,-1.5254,-1.5263,-1.5141,-1.5141,-1.514,0,0,-1.4889,-1.4903,-1.4947,-1.4964,-1.4989,-1.4995,-1.5005,-1.5028,-1.5036,-1.5085,-1.5074,-1.5106,-1.5164,-1.5184,-1.5201,-1.5275,-1.5267,-1.5286,-1.5325,-1.5359,-1.5367,-1.5375,-1.5404,-1.5414,-1.5292,-1.5292,-1.5292,0,-1.4921,-1.4972,-1.497,-1.501,-1.5029,-1.5014,-1.5059,-1.5075,-1.511,-1.5125,-1.5108,-1.518,-1.5197,-1.5259,-1.5277,-1.5291,-1.5304,-1.5284,-1.5366,-1.5374,-1.5381,-1.5408,-1.5419,-1.5294,-1.5294,-1.5294,-1.5294,0,-1.5011,-1.5047,-1.5079,-1.5112,-1.5134,-1.5176,-1.5181,-1.5204,-1.52,-1.5208,-1.5259,-1.5278,-1.5314,-1.5328,-1.5325,-1.539,-1.5381,-1.5365,-1.5337,-1.5394,-1.542,-1.543,-1.5298,-1.5297,-1.5296,-1.5295,0,0,-1.5103,-1.5133,-1.5145,-1.516,-1.5186,-1.5215,-1.5255,-1.5289,-1.531,-1.5333,-1.5369,-1.5417,-1.5402,-1.5422,-1.5421,-1.545,-1.551,-1.5431,-1.5432,-1.5447,-1.5585,-1.5599,-1.5611,-1.5503,-1.5505,-1.5507,-1.5584,0,-1.5176,-1.5247,-1.5246,-1.5313,-1.5347,-1.5332,-1.5368,-1.5388,-1.5395,-1.5426,-1.5434,-1.5469,-1.5446,-1.5458,-1.5486,-1.5497,-1.5539,-1.5491,-1.5539,-1.554,-1.5536,-1.5624,-1.564,-1.5712,-1.5593,-1.5595,-1.5596,0,-1.5272,-1.5298,-1.5368,-1.5389,-1.5403,-1.5435,-1.5466,-1.5494,-1.5517,-1.552,-1.5542,-1.5536,-1.5578,-1.5546,-1.5605,-1.5573,-1.5591,-1.56,-1.5602,-1.561,-1.5574,-1.5637,-1.5734,-1.5746,-1.5612,-1.5611,-1.5609,0,-1.5335,-1.5387,-1.5436,-1.5449,-1.5474,-1.5497,-1.5509,-1.5529,-1.555,-1.5576,-1.559,-1.5621,-1.564,-1.5664,-1.5668,-1.5643,-1.5728,-1.5695,-1.5734,-1.5734,-1.5755,-1.5755,-1.586,-1.5762,-1.5762,-1.5762,-1.5761,0,-1.5418,-1.5463,-1.5465,-1.5495,-1.5544,-1.5541,-1.559,-1.5599,-1.5618,-1.565,-1.5638,-1.567,-1.567,-1.5702,-1.5704,-1.5754,-1.5762,-1.5767,-1.5768,-1.577,-1.577,-1.5785,-1.5781,-1.5764,-1.5764,-1.5763,-1.5763,0,-1.5499,-1.5502,-1.5555,-1.5573,-1.5579,-1.5614,-1.5631,-1.566,-1.5665,-1.5706,-1.5716,-1.5725,-1.5762,-1.5766,-1.5809,-1.5811,-1.5871,-1.5865,-1.5864,-1.5864,-1.5903,-1.5901,-1.6025,-1.6042,-1.593,-1.5931,-1.5932,0,-1.5554,-1.5587,-1.5609,-1.5629,-1.5642,-1.5675,-1.5695,-1.5693,-1.5715,-1.5743,-1.5769,-1.5804,-1.5833,-1.5892,-1.5903,-1.5936,-1.5933,-1.5974,-1.5938,-1.5939,-1.5937,-1.5936,-1.594,-1.5982,-1.5983,-1.5984,-1.5985,0,-1.5652,-1.5651,-1.5681,-1.5711,-1.5735,-1.5758,-1.5781,-1.5798,-1.5799,-1.5824,-1.5861,-1.5883,-1.5926,-1.5962,-1.5994,-1.6007,-1.5997,-1.5996,-1.6007,-1.6011,-1.601,-1.6014,-1.5886,-1.5994,-1.5993,-1.5992,-1.5992,-1.5992,-1.5723,-1.5752,-1.5772,-1.5805,-1.5821,-1.5842,-1.5871,-1.5878,-1.5909,-1.5944,-1.594,-1.5981,-1.6002,-1.6044,-1.6059,-1.6092,-1.6079,-1.6094,-1.6099,-1.6104,-1.6109,-1.6002,-1.6098,-1.6097,-1.6097,-1.6097,-1.6097,0,-1.5823,-1.5834,-1.5864,-1.5895,-1.5921,-1.5907,-1.593,-1.5954,-1.599,-1.601,-1.6037,-1.608,-1.6114,-1.6127,-1.6161,-1.6185,-1.6181,-1.6194,-1.6194,-1.6197,-1.6118,-1.6106,-1.6196,-1.6196,-1.6196,-1.6196,-1.6196,-1.6196,-1.5878,-1.5927,-1.5929,-1.5986,-1.5997,-1.6036,-1.6051,-1.6071,-1.6086,-1.6134,-1.6162,-1.6169,-1.6187,-1.6221,-1.6253,-1.6255,-1.627,-1.6285,-1.6287,-1.6213,-1.6203,-1.6193,-1.6183,-1.6288,-1.6288,-1.6364,-1.6365,-1.6365]}]]